Location: Newark
(50.0306°N, 2.3272°E)
Time: 01:39:49
(UTC+00:00)

A-11 Canister half - Pass Details

Date: 09 December 2019
Orbit: 1525 x 1684 km, 47.3° (Epoch: 22 January)

Event Time Altitude Azimuth Distance (km) Brightness Sun altitude
Rises 05:21:40 0° 208° (SSW) 4,903 11.5 -20.6°
Reaches altitude 10° 05:25:09 10° 200° (SSW) 3,929 11.0 -20.0°
Maximum altitude 05:33:56 36° 139° (SE) 2,465 10.5 -18.6°
Drops below altitude 10° 05:42:44 10° 79° (E) 3,936 12.1 -17.3°
Sets 05:46:12 0° 71° (ENE) 4,914 12.6 -16.7°
